Location: Battersea Observatory
(44.4318°N, 76.3841°W)
Time: 22:44:00
(UTC-04:00)

Tiros 1 despin weight - Pass Details

Date: 29 January 2022
Orbit: 592 x 639 km, 48.2° (Epoch: 25 May)

Event Time Altitude Azimuth Distance (km) Brightness Sun altitude
Rises 18:54:03 0° 286° (WNW) 2,892 ? -18.5°
Reaches altitude 10° 18:56:23 10° 290° (WNW) 1,994 ? -18.9°
Maximum altitude 19:00:55 60° 11° (N) 725 ? -19.7°
Enters shadow 19:02:00 46° 63° (ENE) 850 ? -19.9°
Drops below altitude 10° 19:05:27 10° 91° (E) 1,994 - -20.5°
Sets 19:07:53 0° 96° (E) 2,931 - -21.0°
